| time (UTC) | temp F | wind direction | speed knots | gust knots | rain 1hr in | rain 24hr in | rain mn in | humidity % | barometer mb |
| 20260906100001 | 59 | 115 | 0.9 | 6.1 | 0.00 | 0.52 | 0.14 | 97 | 1013.2 |
| 20260906094557 | 60 | 115 | 1.7 | 6.1 | 0.05 | 0.52 | 0.14 | 97 | 1013.1 |
| 20260906093056 | 60 | 119 | 3.5 | 5.2 | 0.14 | 0.52 | 0.14 | 97 | 1012.8 |
| 20260906091541 | 60 | 155 | 0.0 | 4.3 | 0.14 | 0.52 | 0.14 | 97 | 1013.0 |
| 20260906090034 | 60 | 153 | 0.9 | 7.0 | 0.14 | 0.52 | 0.14 | 97 | 1012.8 |
| 20260906084526 | 60 | 253 | 2.6 | 7.8 | 0.09 | 0.48 | 0.09 | 97 | 1013.1 |
| 20260906083023 | 60 | 136 | 0.0 | 0.0 | 0.00 | 0.39 | 0.00 | 97 | 1012.8 |
| 20260906081600 | 60 | 136 | 0.0 | 1.7 | 0.00 | 0.39 | 0.00 | 97 | 1013.0 |
| 20260906080058 | 60 | 136 | 1.7 | 3.5 | 0.00 | 0.39 | 0.00 | 97 | 1012.9 |
| 20260906074548 | 59 | 150 | 0.0 | 0.0 | 0.00 | 0.39 | 0.39 | 97 | 1013.1 |
| 20260906073039 | 59 | 150 | 0.0 | 0.0 | 0.00 | 0.39 | 0.39 | 97 | 1013.1 |
| 20260906071533 | 59 | 151 | 0.0 | 4.3 | 0.00 | 0.39 | 0.39 | 97 | 1013.5 |
| 20260906070028 | 59 | 151 | 2.6 | 7.0 | 0.00 | 0.39 | 0.39 | 96 | 1013.2 |
| 20260906064534 | 59 | 150 | 1.7 | 4.3 | 0.00 | 0.39 | 0.39 | 96 | 1013.2 |
| 20260906063024 | 60 | 49 | 1.7 | 3.5 | 0.00 | 0.39 | 0.39 | 96 | 1013.4 |
| 20260906061506 | 60 | 49 | 0.0 | 3.5 | 0.00 | 0.39 | 0.39 | 97 | 1013.4 |
| 20260906060104 | 60 | 45 | 0.0 | 0.0 | 0.01 | 0.39 | 0.39 | 97 | 1013.5 |
| 20260906054554 | 59 | 47 | 0.0 | 0.0 | 0.01 | 0.39 | 0.39 | 96 | 1013.7 |
| 20260906053047 | 59 | 45 | 0.0 | 0.0 | 0.01 | 0.39 | 0.39 | 95 | 1013.9 |
| 20260906051640 | 61 | 46 | 0.0 | 0.0 | 0.01 | 0.39 | 0.39 | 96 | 1014.0 |
| 20260906050034 | 61 | 45 | 0.0 | 0.0 | 0.00 | 0.38 | 0.38 | 96 | 1014.0 |
| 20260906044533 | 61 | 45 | 0.0 | 0.9 | 0.00 | 0.38 | 0.38 | 96 | 1013.9 |
| 20260906043028 | 60 | 45 | 0.0 | 0.9 | 0.00 | 0.38 | 0.38 | 96 | 1013.9 |
| 20260906041512 | 60 | 48 | 0.0 | 1.7 | 0.00 | 0.38 | 0.38 | 96 | 1013.4 |
| 20260906040002 | 60 | 44 | 0.0 | 3.5 | 0.00 | 0.38 | 0.38 | 96 | 1013.7 |
| 20260906034545 | 61 | 46 | 0.0 | 1.7 | 0.00 | 0.38 | 0.38 | 95 | 1013.7 |
| 20260906033038 | 61 | 46 | 1.7 | 2.6 | 0.00 | 0.38 | 0.38 | 95 | 1014.2 |
| 20260906031532 | 61 | 46 | 0.0 | 3.5 | 0.00 | 0.38 | 0.38 | 95 | 1014.2 |
| 20260906030028 | 62 | 46 | 0.0 | 0.0 | 0.00 | 0.38 | 0.38 | 93 | 1014.3 |
| 20260906024521 | 63 | 46 | 0.0 | 0.9 | 0.00 | 0.38 | 0.38 | 94 | 1014.3 |
| 20260906023016 | 63 | 46 | 0.0 | 2.6 | 0.00 | 0.38 | 0.38 | 94 | 1014.5 |
| 20260906021513 | 64 | 45 | 0.9 | 2.6 | 0.00 | 0.38 | 0.38 | 94 | 1014.5 |
| 20260906020002 | 64 | 46 | 0.0 | 2.6 | 0.00 | 0.38 | 0.38 | 92 | 1014.5 |
| 20260906014646 | 65 | 46 | 0.0 | 0.0 | 0.00 | 0.38 | 0.38 | 94 | 1014.2 |
| 20260906013038 | 65 | 46 | 0.0 | 2.6 | 0.00 | 0.38 | 0.38 | 92 | 1014.2 |
| 20260906011531 | 65 | 46 | 0.0 | 5.2 | 0.00 | 0.38 | 0.38 | 92 | 1013.9 |
| 20260906010028 | 66 | 43 | 0.0 | 0.0 | 0.01 | 0.38 | 0.38 | 91 | 1013.6 |
| 20260906004528 | 67 | 42 | 0.0 | 1.7 | 0.02 | 0.38 | 0.38 | 90 | 1013.5 |
| 20260906003127 | 68 | 42 | 0.0 | 0.0 | 0.02 | 0.38 | 0.38 | 88 | 1013.4 |
| 20260906001621 | 68 | 42 | 0.0 | 2.6 | 0.02 | 0.38 | 0.38 | 87 | 1013.2 |
| 20260906000117 | 69 | 44 | 3.5 | 9.6 | 0.01 | 0.37 | 0.37 | 85 | 1013.4 |
| 20260905234551 | 71 | 297 | 0.9 | 3.5 | 0.00 | 0.36 | 0.36 | 78 | 1013.2 |
| 20260905233104 | 71 | 360 | 0.0 | 4.3 | 0.00 | 0.36 | 0.36 | 77 | 1013.0 |
| 20260905231528 | 72 | 277 | 1.7 | 3.5 | 0.00 | 0.36 | 0.36 | 76 | 1013.0 |
| 20260905230027 | 73 | 360 | 0.9 | 5.2 | 0.00 | 0.36 | 0.36 | 74 | 1013.2 |
| 20260905224527 | 75 | 360 | 1.7 | 5.2 | 0.00 | 0.36 | 0.36 | 70 | 1013.2 |
| 20260905223125 | 77 | 261 | 4.3 | 8.7 | 0.00 | 0.36 | 0.36 | 67 | 1013.3 |
| 20260905221531 | 78 | 360 | 1.7 | 4.3 | 0.00 | 0.36 | 0.36 | 66 | 1013.3 |
| 20260905220012 | 78 | 293 | 0.0 | 4.3 | 0.00 | 0.36 | 0.36 | 65 | 1013.1 |
| 20260905214505 | 79 | 314 | 1.7 | 4.3 | 0.00 | 0.89 | 0.36 | 63 | 1013.0 |
| 20260905213059 | 78 | 265 | 0.9 | 6.1 | 0.00 | 0.89 | 0.36 | 65 | 1012.9 |
| 20260905211542 | 78 | 335 | 0.9 | 5.2 | 0.00 | 0.89 | 0.36 | 64 | 1013.0 |
| 20260905210036 | 79 | 360 | 0.0 | 2.6 | 0.00 | 0.89 | 0.36 | 62 | 1012.7 |
| 20260905204529 | 78 | 82 | 0.0 | 4.3 | 0.00 | 0.89 | 0.36 | 63 | 1012.7 |
| 20260905203027 | 77 | 360 | 0.0 | 10.4 | 0.00 | 0.89 | 0.36 | 67 | 1012.6 |
| 20260905201527 | 77 | 214 | 1.7 | 7.0 | 0.00 | 0.89 | 0.36 | 68 | 1012.6 |
| 20260905200017 | 77 | 338 | 1.7 | 5.2 | 0.00 | 0.89 | 0.36 | 70 | 1012.6 |
| 20260905194611 | 75 | 340 | 3.5 | 9.6 | 0.00 | 0.89 | 0.36 | 73 | 1012.7 |
| 20260905193009 | 74 | 348 | 2.6 | 7.8 | 0.00 | 0.89 | 0.36 | 72 | 1012.8 |
| 20260905191701 | 75 | 36 | 4.3 | 10.4 | 0.00 | 0.89 | 0.36 | 68 | 1013.0 |
| 20260905190057 | 75 | 310 | 3.5 | 13.0 | 0.00 | 0.89 | 0.36 | 64 | 1013.1 |
| 20260905184532 | 75 | 320 | 3.5 | 13.9 | 0.00 | 0.89 | 0.36 | 66 | 1013.3 |
| 20260905183023 | 72 | 153 | 0.0 | 2.6 | 0.00 | 0.89 | 0.36 | 79 | 1013.6 |
| 20260905181516 | 70 | 151 | 0.0 | 0.9 | 0.00 | 0.89 | 0.36 | 82 | 1013.8 |
| 20260905180010 | 68 | 151 | 0.9 | 3.5 | 0.00 | 0.89 | 0.36 | 85 | 1014.1 |
| 20260905174505 | 67 | 157 | 0.0 | 4.3 | 0.00 | 0.89 | 0.36 | 86 | 1014.0 |
| 20260905173154 | 66 | 155 | 0.0 | 1.7 | 0.02 | 0.89 | 0.36 | 89 | 1014.2 |
| 20260905171547 | 65 | 157 | 0.0 | 4.3 | 0.06 | 0.89 | 0.36 | 91 | 1014.5 |
| 20260905170025 | 64 | 76 | 0.0 | 0.9 | 0.35 | 0.89 | 0.36 | 93 | 1015.0 |
| 20260905164518 | 64 | 91 | 3.5 | 10.4 | 0.35 | 0.89 | 0.36 | 92 | 1015.5 |
| 20260905163012 | 64 | 279 | 4.3 | 11.3 | 0.32 | 0.86 | 0.33 | 91 | 1016.2 |
| 20260905161504 | 65 | 184 | 8.7 | 22.6 | 0.28 | 0.82 | 0.28 | 86 | 1016.7 |
| 20260905160042 | 69 | 336 | 0.0 | 3.5 | 0.00 | 0.54 | 0.01 | 84 | 1016.3 |
| 20260905154537 | 70 | 295 | 1.7 | 7.8 | 0.00 | 0.54 | 0.01 | 83 | 1016.1 |
| 20260905153029 | 71 | 78 | 5.2 | 10.4 | 0.00 | 0.54 | 0.01 | 82 | 1015.8 |
| 20260905151527 | 76 | 61 | 3.5 | 8.7 | 0.00 | 0.54 | 0.01 | 76 | 1015.5 |
| 20260905150025 | 78 | 355 | 2.6 | 12.2 | 0.00 | 0.54 | 0.01 | 74 | 1014.9 |
| 20260905144516 | 78 | 255 | 5.2 | 11.3 | 0.00 | 0.54 | 0.01 | 75 | 1014.8 |
| 20260905143006 | 76 | 360 | 4.3 | 12.2 | 0.00 | 0.54 | 0.01 | 78 | 1014.3 |
| 20260905141619 | 75 | 291 | 2.6 | 9.6 | 0.00 | 0.54 | 0.01 | 82 | 1014.7 |
| 20260905140034 | 73 | 265 | 2.6 | 10.4 | 0.00 | 0.54 | 0.01 | 87 | 1014.9 |
| 20260905134527 | 70 | 284 | 3.5 | 7.8 | 0.00 | 0.54 | 0.01 | 98 | 1015.0 |
| 20260905133019 | 68 | 74 | 0.0 | 0.0 | 0.00 | 0.54 | 0.01 | 98 | 1015.2 |
| 20260905131513 | 67 | 71 | 0.0 | 0.0 | 0.00 | 0.54 | 0.01 | 98 | 1015.1 |
| 20260905124551 | 63 | 71 | 0.0 | 0.0 | 0.00 | 0.54 | 0.01 | 98 | 1015.6 |
| 20260905123042 | 60 | 71 | 0.0 | 0.0 | 0.00 | 0.54 | 0.01 | 98 | 1015.6 |
| 20260905121531 | 59 | 72 | 0.0 | 2.6 | 0.00 | 0.54 | 0.01 | 98 | 1015.5 |
| 20260905120006 | 58 | 73 | 0.9 | 3.5 | 0.00 | 0.54 | 0.01 | 97 | 1015.4 |
| 20260905114557 | 58 | 69 | 0.9 | 2.6 | 0.00 | 0.54 | 0.01 | 97 | 1015.5 |
| 20260905113100 | 57 | 69 | 0.0 | 1.7 | 0.00 | 0.54 | 0.01 | 97 | 1015.4 |
| 20260905111553 | 57 | 68 | 0.9 | 2.6 | 0.00 | 0.54 | 0.01 | 97 | 1015.2 |
| 20260905110038 | 56 | 68 | 0.0 | 1.7 | 0.00 | 0.54 | 0.01 | 97 | 1015.1 |
| 20260905104531 | 56 | 69 | 0.0 | 0.0 | 0.00 | 0.54 | 0.01 | 97 | 1015.0 |
| 20260905103031 | 57 | 69 | 0.0 | 0.0 | 0.00 | 0.54 | 0.01 | 97 | 1015.0 |
| 20260905101531 | 57 | 69 | 0.0 | 0.0 | 0.00 | 0.54 | 0.01 | 97 | 1014.9 |